Simultaneous Nadir Overpasses (SNOs) Predictions

Prediction of SNOs between GOES-15 and METOP-A Satellite Orbit:

Table of predicted SNOs for the next 14.0 days since TLE Epoch: 4/15/2014
Index Date Time (GOES-15) GOES-15 Lat,Lon METOP-A Lat,Lon Distance(km) Time Diff (sec)
1 04/15/2014 06:22:41 -0.02,-135.42 0.34,-133.91 172.20 80
2 04/16/2014 18:41:34 0.01,-135.44 0.69,-138.47 345.52 80
3 04/17/2014 18:23:36 0.01,-135.43 -0.42,-133.47 223.33 80
4 04/19/2014 06:42:37 -0.01,-135.41 -0.62,-138.07 303.24 80
5 04/20/2014 06:19:19 -0.01,-135.40 0.50,-133.07 264.97 80
6 04/21/2014 18:38:12 0.01,-135.41 0.53,-137.63 254.42 80
7 04/22/2014 18:20:13 0.01,-135.40 -0.59,-132.64 313.64 80
8 04/24/2014 06:39:15 -0.01,-135.36 -0.44,-137.23 213.70 80
9 04/25/2014 06:15:56
